Location: Ca�n Batista
(41.4099°N, 1.7752°E)
Time: 15:16:44
(UTC+00:00)

Ariane Rocket - Pass Details

Date: 03 March 2021
Orbit: 759 x 771 km, 98.7° (Epoch: 21 April)

Event Time Altitude Azimuth Distance (km) Brightness Sun altitude
Exits shadow 20:22:14 56° 245° (WSW) 913 3.5 -29.7°
Maximum altitude 20:22:31 57° 259° (W) 906 3.5 -29.8°
Drops below altitude 10° 20:27:33 10° 338° (NNW) 2,321 5.9 -30.6°
Sets 20:29:55 0° 343° (NNW) 3,251 6.7 -31.1°
